TimePST,TemperatureF,Dew PointF,Humidity,Sea Level PressureIn,VisibilityMPH,Wind Direction,Wind SpeedMPH,Gust SpeedMPH,PrecipitationIn,Events,Conditions,WindDirDegrees,DateUTC
12:15 AM,46.4,42.8,87,29.67,10.0,SSE,12.7,19.6,0.00,,Overcast,150,2012-11-18 08:15:00
12:35 AM,46.4,42.8,87,29.68,10.0,SSE,12.7,18.4,0.00,,Overcast,150,2012-11-18 08:35:00
12:55 AM,46.4,42.8,87,29.68,10.0,SSE,13.8,21.9,0.00,,Overcast,150,2012-11-18 08:55:00
1:15 AM,46.4,42.8,87,29.69,10.0,SSE,10.4,24.2,0.00,,Overcast,150,2012-11-18 09:15:00
1:35 AM,46.4,42.8,87,29.69,10.0,SSE,15.0,24.2,0.00,,Overcast,160,2012-11-18 09:35:00
1:55 AM,46.4,42.8,87,29.69,10.0,SE,16.1,21.9,0.00,,Overcast,140,2012-11-18 09:55:00
2:15 AM,46.4,42.8,87,29.69,10.0,SSE,12.7,21.9,0.00,,Overcast,160,2012-11-18 10:15:00
2:35 AM,46.4,42.8,87,29.70,10.0,South,15.0,21.9,0.00,,Overcast,170,2012-11-18 10:35:00
2:55 AM,46.4,41.0,81,29.70,10.0,SSE,15.0,23.0,0.00,,Overcast,150,2012-11-18 10:55:00
3:15 AM,46.4,41.0,81,29.70,10.0,SSE,15.0,20.7,0.00,,Overcast,150,2012-11-18 11:15:00
3:35 AM,46.4,41.0,81,29.70,10.0,SE,15.0,24.2,0.00,,Mostly Cloudy,140,2012-11-18 11:35:00
3:55 AM,46.4,42.8,87,29.70,10.0,SSE,16.1,25.3,0.00,,Mostly Cloudy,150,2012-11-18 11:55:00
4:15 AM,46.4,42.8,87,29.71,10.0,SSE,10.4,27.6,0.00,,Overcast,160,2012-11-18 12:15:00
4:35 AM,46.4,42.8,87,29.72,10.0,South,11.5,20.7,0.00,,Overcast,170,2012-11-18 12:35:00
4:55 AM,46.4,42.8,87,29.72,10.0,South,13.8,18.4,0.00,,Overcast,170,2012-11-18 12:55:00
5:15 AM,46.4,42.8,87,29.73,10.0,South,12.7,18.4,0.00,,Overcast,170,2012-11-18 13:15:00
5:35 AM,46.4,42.8,87,29.73,10.0,South,9.2,18.4,0.00,,Overcast,170,2012-11-18 13:35:00
5:55 AM,46.4,42.8,87,29.72,10.0,SSE,12.7,23.0,0.00,,Overcast,160,2012-11-18 13:55:00
6:15 AM,46.4,42.8,87,29.72,10.0,SE,12.7,21.9,0.00,,Overcast,140,2012-11-18 14:15:00
6:35 AM,46.4,42.8,87,29.72,10.0,SE,11.5,19.6,0.00,,Overcast,140,2012-11-18 14:35:00
7:15 AM,46.4,42.8,87,29.72,10.0,South,11.5,-,0.00,,Overcast,170,2012-11-18 15:15:00
7:35 AM,46.4,42.8,87,29.72,10.0,SSE,12.7,23.0,0.00,,Overcast,150,2012-11-18 15:35:00
7:55 AM,46.4,41.0,81,29.72,10.0,SE,13.8,21.9,0.00,,Overcast,140,2012-11-18 15:55:00
8:15 AM,46.4,41.0,81,29.72,10.0,SSE,12.7,24.2,0.00,,Overcast,150,2012-11-18 16:15:00
8:35 AM,46.4,42.8,87,29.71,10.0,SE,15.0,24.2,0.00,,Mostly Cloudy,140,2012-11-18 16:35:00
8:55 AM,48.2,42.8,82,29.72,10.0,SSE,15.0,25.3,0.00,,Scattered Clouds,160,2012-11-18 16:55:00
9:15 AM,46.4,42.8,87,29.72,10.0,SSE,15.0,25.3,0.00,,Mostly Cloudy,150,2012-11-18 17:15:00
9:35 AM,46.4,42.8,87,29.72,10.0,SSE,15.0,24.2,0.00,,Mostly Cloudy,150,2012-11-18 17:35:00
10:15 AM,48.2,42.8,82,29.73,10.0,SE,12.7,21.9,0.00,,Overcast,140,2012-11-18 18:15:00
10:35 AM,46.4,42.8,87,29.73,10.0,SE,16.1,23.0,0.00,,Mostly Cloudy,140,2012-11-18 18:35:00
11:15 AM,48.2,42.8,82,29.72,10.0,SE,16.1,25.3,0.00,,Overcast,140,2012-11-18 19:15:00
11:35 AM,48.2,42.8,82,29.71,10.0,SE,13.8,33.4,0.00,,Mostly Cloudy,140,2012-11-18 19:35:00
11:55 AM,48.2,42.8,82,29.71,10.0,SE,18.4,25.3,0.00,,Mostly Cloudy,140,2012-11-18 19:55:00
12:15 PM,48.2,42.8,82,29.70,10.0,SE,18.4,25.3,0.00,,Mostly Cloudy,130,2012-11-18 20:15:00
12:35 PM,50.0,42.8,76,29.70,10.0,SE,16.1,32.2,0.00,,Mostly Cloudy,140,2012-11-18 20:35:00
12:55 PM,50.0,42.8,76,29.70,10.0,SE,12.7,27.6,0.00,,Mostly Cloudy,140,2012-11-18 20:55:00
1:15 PM,50.0,42.8,76,29.69,10.0,SE,12.7,29.9,0.00,,Mostly Cloudy,140,2012-11-18 21:15:00
1:35 PM,50.0,42.8,76,29.68,10.0,SE,13.8,23.0,0.00,,Mostly Cloudy,140,2012-11-18 21:35:00
1:55 PM,50.0,42.8,76,29.68,10.0,SE,11.5,24.2,0.00,,Mostly Cloudy,130,2012-11-18 21:55:00
2:15 PM,50.0,42.8,76,29.66,10.0,ESE,16.1,23.0,0.00,,Mostly Cloudy,120,2012-11-18 22:15:00
2:35 PM,48.2,42.8,82,29.65,10.0,ESE,13.8,24.2,0.00,,Overcast,120,2012-11-18 22:35:00
2:55 PM,48.2,42.8,82,29.64,10.0,ESE,19.6,23.0,0.00,,Overcast,120,2012-11-18 22:55:00
3:15 PM,48.2,42.8,82,29.63,10.0,ESE,15.0,21.9,0.00,,Overcast,120,2012-11-18 23:15:00
3:35 PM,48.2,42.8,82,29.62,10.0,ESE,15.0,19.6,0.00,,Overcast,120,2012-11-18 23:35:00
3:55 PM,50.0,42.8,76,29.62,10.0,ESE,15.0,24.2,0.00,,Overcast,120,2012-11-18 23:55:00
4:15 PM,50.0,42.8,76,29.60,10.0,ESE,19.6,31.1,0.00,,Overcast,120,2012-11-19 00:15:00
4:35 PM,48.2,42.8,82,29.59,10.0,ESE,17.3,24.2,0.00,,Overcast,120,2012-11-19 00:35:00
4:55 PM,48.2,44.6,87,29.58,10.0,ESE,23.0,28.8,0.00,,Overcast,110,2012-11-19 00:55:00
5:15 PM,48.2,44.6,87,29.57,10.0,ESE,15.0,23.0,0.00,,Overcast,110,2012-11-19 01:15:00
5:35 PM,48.2,44.6,87,29.55,10.0,ESE,17.3,21.9,0.00,,Overcast,120,2012-11-19 01:35:00
6:15 PM,48.2,44.6,87,29.53,10.0,ESE,18.4,26.5,0.00,,Overcast,110,2012-11-19 02:15:00
6:35 PM,48.2,44.6,87,29.51,10.0,ESE,17.3,23.0,0.00,,Overcast,120,2012-11-19 02:35:00
6:55 PM,46.4,46.4,100,29.49,5.0,ESE,18.4,27.6,0.03,,Overcast,120,2012-11-19 02:55:00
7:15 PM,48.2,44.6,87,29.51,10.0,SSE,15.0,26.5,0.00,,Overcast,150,2012-11-19 03:15:00
7:35 PM,48.2,46.4,93,29.53,9.0,SSE,12.7,21.9,0.01,,Overcast,150,2012-11-19 03:35:00
7:55 PM,48.2,46.4,93,29.53,10.0,SE,18.4,26.5,0.01,,Overcast,140,2012-11-19 03:55:00
8:15 PM,48.2,46.4,93,29.54,10.0,SE,12.7,21.9,0.01,,Overcast,130,2012-11-19 04:15:00
8:35 PM,48.2,46.4,93,29.54,10.0,SE,16.1,21.9,0.01,,Overcast,130,2012-11-19 04:35:00
8:55 PM,48.2,44.6,87,29.55,10.0,SE,17.3,23.0,0.01,,Overcast,130,2012-11-19 04:55:00
9:15 PM,50.0,44.6,82,29.55,10.0,SSE,17.3,24.2,0.00,,Overcast,150,2012-11-19 05:15:00
9:35 PM,51.8,44.6,76,29.54,10.0,SSE,18.4,27.6,0.00,,Overcast,150,2012-11-19 05:35:00
9:55 PM,51.8,44.6,76,29.55,10.0,SSE,10.4,21.9,0.00,,Overcast,160,2012-11-19 05:55:00
10:15 PM,51.8,44.6,76,29.53,10.0,SE,15.0,28.8,0.00,,Overcast,140,2012-11-19 06:15:00
10:35 PM,51.8,44.6,76,29.53,10.0,SE,19.6,26.5,0.00,,Overcast,140,2012-11-19 06:35:00
11:15 PM,51.8,44.6,76,29.54,10.0,SSE,21.9,35.7,0.00,,Overcast,150,2012-11-19 07:15:00
11:35 PM,51.8,46.4,82,29.55,10.0,SSE,19.6,28.8,0.00,,Overcast,150,2012-11-19 07:35:00
11:55 PM,51.8,46.4,82,29.54,10.0,SE,16.1,25.3,0.00,,Overcast,140,2012-11-19 07:55:00